Waarnemingen

Advertentie
Mijn weer
Huelva, Spanje (8383): temperatuur & dauwpunt: 17.05.2018 01:00:00 - 23.05.2018 01:00:00 (CEST)Huelva, Spanje (8383): windsnelheid: 17.05.2018 01:00:00 - 23.05.2018 01:00:00 (CEST)Huelva, Spanje (8383): windrichting: 17.05.2018 01:00:00 - 23.05.2018 01:00:00 (CEST)Huelva, Spanje (8383): luchtdruk: 17.05.2018 01:00:00 - 23.05.2018 01:00:00 (CEST)Huelva, Spanje (8383): zicht: 17.05.2018 01:00:00 - 23.05.2018 01:00:00 (CEST)Huelva, Spanje (8383): neerslag: 17.05.2018 01:00:00 - 23.05.2018 01:00:00 (CEST)
Datum & Tijd tt [°C] td [°C] ff [km/u] ff [kn] dd ppp [hPa] vv [km] rr [mm]
23.05.2018 01:00:00 16,0 13,3 8 4 W 1015,4 20 0,0
23.05.2018 00:00:00 17,1 13,6 13 7 W 1015,7 20 0,0
22.05.2018 23:00:00 17,9 13,4 8 4 W 1015,2 20 -
22.05.2018 22:00:00 18,9 12,9 8 4 W 1014,5 20 0,0
22.05.2018 21:00:00 21,1 12,8 9 5 W 1014,3 20 0,0
22.05.2018 20:00:00 21,6 12,4 13 7 ZW 1014,3 20 -
22.05.2018 19:00:00 23,0 12,6 11 6 ZW 1014,3 20 0,0
22.05.2018 18:00:00 22,5 12,1 13 7 ZW 1014,5 20 0,0
22.05.2018 17:00:00 22,6 11,9 15 8 WZW 1014,9 20 -
22.05.2018 16:00:00 22,2 12,4 16 9 ZW 1015,3 20 0,0
22.05.2018 15:00:00 22,3 13,1 15 8 ZZW 1015,6 20 0,0
22.05.2018 14:00:00 21,9 13,3 13 7 ZZW 1015,7 18 -
22.05.2018 13:00:00 20,9 12,3 9 5 Z 1015,8 20 0,0
22.05.2018 12:00:00 19,6 12,8 11 6 Z 1016,0 20 0,0
22.05.2018 11:00:00 18,3 12,9 11 6 Z 1015,7 15 -
22.05.2018 10:00:00 17,4 13,1 5 3 ZZW 1015,3 20 0,0
22.05.2018 09:00:00 16,8 13,1 8 4 Z 1015,0 19 0,0
22.05.2018 08:00:00 16,6 12,5 13 7 ZZW 1014,7 12 -
22.05.2018 07:00:00 16,6 12,5 11 6 Z 1014,0 19 0,0
22.05.2018 06:00:00 16,6 13,9 11 6 OZO 1013,7 19 0,0
22.05.2018 05:00:00 16,6 14,1 8 4 OZO 1013,8 18 -
22.05.2018 04:00:00 16,8 14,4 9 5 Z 1014,0 15 0,0
22.05.2018 03:00:00 16,6 14,4 9 5 Z 1013,8 14 0,0
22.05.2018 02:00:00 17,2 15,0 11 6 Z 1014,2 16 -
22.05.2018 01:00:00 17,0 15,2 11 6 Z 1014,5 14 0,0
22.05.2018 00:00:00 16,7 15,1 8 4 Z 1014,5 7 0,0
21.05.2018 23:00:00 16,9 15,1 11 6 ZZW 1014,1 11 -
21.05.2018 22:00:00 17,2 14,8 9 5 ZZW 1013,5 11 0,0
21.05.2018 21:00:00 18,1 14,8 11 6 ZW 1013,1 18 0,0
21.05.2018 20:00:00 19,4 14,9 13 7 ZZW 1012,8 18 -
21.05.2018 19:00:00 20,3 15,1 22 12 ZW 1012,3 17 0,0
21.05.2018 18:00:00 22,2 15,3 18 10 ZW 1012,0 17 0,0
21.05.2018 17:00:00 23,6 16,1 15 8 Z 1012,0 19 -
21.05.2018 16:00:00 22,6 15,9 18 10 Z 1012,5 0,8 0,0
21.05.2018 15:00:00 22,8 16,3 16 9 ZZW 1012,8 0,4 0,0
21.05.2018 14:00:00 22,7 14,0 13 7 Z 1013,2 12 -
21.05.2018 13:00:00 20,7 15,7 9 5 ZZW 1013,4 20 0,0
21.05.2018 12:00:00 20,1 15,9 8 4 W 1013,4 14 0,0
21.05.2018 11:00:00 19,4 15,3 4 2 Z 1013,4 9 -
21.05.2018 10:00:00 17,1 15,4 5 3 NNO 1013,3 10 0,0
21.05.2018 09:00:00 15,4 14,6 4 2 N 1012,8 7 0,0
21.05.2018 08:00:00 14,6 14,3 5 3 NNO 1012,4 7 -
21.05.2018 07:00:00 14,5 14,0 8 4 NO 1012,0 4,7 0,2
21.05.2018 06:00:00 14,7 14,2 5 3 NO 1012,1 4,1 0,0
21.05.2018 05:00:00 15,2 14,6 2 1 NNW 1012,1 7 -
21.05.2018 04:00:00 14,7 14,2 0 0 N 1012,2 - 0,0
21.05.2018 03:00:00 14,8 13,3 4 2 ZO 1012,9 - 0,0
21.05.2018 02:00:00 15,7 14,4 9 5 N 1013,2 9 -
21.05.2018 01:00:00 15,7 14,4 4 2 W 1013,2 10 0,0
21.05.2018 00:00:00 16,6 14,8 4 2 ZZO 1013,5 16 0,0
20.05.2018 23:00:00 17,3 14,9 5 3 Z 1013,3 19 -
20.05.2018 22:00:00 17,9 15,0 4 2 ZZO 1013,0 20 0,0
20.05.2018 21:00:00 19,1 15,2 5 3 ZZW 1012,5 20 0,0
20.05.2018 20:00:00 19,1 15,8 15 8 ZZW 1012,6 20 -
20.05.2018 19:00:00 20,1 15,9 9 5 O 1012,3 20 0,0
20.05.2018 18:00:00 18,3 15,9 8 4 WNW 1012,6 20 0,2
20.05.2018 17:00:00 17,3 16,0 15 8 W 1013,8 11 -
20.05.2018 16:00:00 17,8 16,0 8 4 WNW 1014,7 9 0,8
20.05.2018 15:00:00 21,6 12,7 13 7 W 1014,3 20 0,0
20.05.2018 14:00:00 25,0 13,9 18 10 ZZW 1013,7 20 -
20.05.2018 13:00:00 24,9 14,1 13 7 ZW 1014,2 20 0,0
20.05.2018 12:00:00 23,0 14,3 9 5 WZW 1014,4 20 0,0
20.05.2018 11:00:00 20,9 15,0 5 3 WZW 1014,6 20 -
20.05.2018 10:00:00 18,8 15,7 4 2 NNO 1014,9 18 0,0
20.05.2018 09:00:00 15,9 14,9 4 2 ONO 1014,9 10 0,0
20.05.2018 08:00:00 13,8 13,0 4 2 OZO 1014,8 10 -
20.05.2018 07:00:00 13,8 13,2 2 1 NNO 1014,6 9 0,0
20.05.2018 06:00:00 14,3 13,8 2 1 W 1014,6 9 0,0
20.05.2018 05:00:00 14,5 13,9 2 1 Z 1014,6 8 -
20.05.2018 04:00:00 14,7 13,4 2 1 ONO 1015,1 12 0,0
20.05.2018 03:00:00 14,8 13,5 0 0 N 1015,5 19 0,0
20.05.2018 02:00:00 15,4 14,1 4 2 NO 1015,8 16 -
20.05.2018 01:00:00 16,3 14,8 5 3 NNO 1016,1 11 0,0
20.05.2018 00:00:00 17,0 14,8 8 4 N 1016,3 20 0,0
19.05.2018 23:00:00 17,1 15,4 9 5 NW 1016,1 17 -
19.05.2018 22:00:00 18,1 15,4 9 5 NO 1015,8 10 0,8
19.05.2018 21:00:00 20,9 12,1 9 5 Z 1015,9 20 0,0
19.05.2018 20:00:00 22,2 12,2 13 7 ZW 1014,7 20 -
19.05.2018 19:00:00 24,3 11,6 18 10 ZZW 1014,2 20 0,0
19.05.2018 18:00:00 25,2 11,4 24 13 ZZW 1014,0 20 0,0
19.05.2018 17:00:00 25,8 10,4 24 13 Z 1014,5 20 -
19.05.2018 16:00:00 26,3 10,4 18 10 ZZW 1014,7 20 0,0
19.05.2018 15:00:00 26,6 10,7 16 9 ZZW 1015,2 20 0,0
19.05.2018 14:00:00 26,4 11,7 16 9 ZZW 1015,5 20 -
19.05.2018 13:00:00 26,0 9,3 8 4 ZO 1015,6 20 0,0
19.05.2018 12:00:00 24,6 9,7 9 5 ONO 1015,7 20 0,0
19.05.2018 11:00:00 22,4 11,2 13 7 ONO 1015,7 20 -
19.05.2018 10:00:00 19,6 12,8 9 5 ONO 1015,6 20 0,0
19.05.2018 09:00:00 17,2 12,9 5 3 NNO 1015,4 20 0,0
19.05.2018 08:00:00 14,7 12,4 4 2 N 1015,1 20 -
19.05.2018 07:00:00 13,8 12,2 5 3 N 1014,7 20 0,0
19.05.2018 06:00:00 13,9 12,5 5 3 NO 1014,5 19 0,0
19.05.2018 05:00:00 14,6 12,8 4 2 NO 1014,6 20 -
19.05.2018 04:00:00 15,0 12,7 8 4 NO 1014,8 19 0,0
19.05.2018 03:00:00 15,3 13,0 5 3 NNO 1015,2 20 0,0
19.05.2018 02:00:00 16,1 13,0 5 3 N 1015,5 20 -
19.05.2018 01:00:00 17,3 13,8 9 5 NW 1015,6 20 0,0
19.05.2018 00:00:00 17,5 12,8 4 2 ZZO 1015,5 19 0,0
18.05.2018 23:00:00 18,5 12,9 4 2 N 1015,6 20 -
18.05.2018 22:00:00 19,2 13,1 2 1 NO 1014,6 20 0,0
18.05.2018 21:00:00 20,3 13,0 11 6 WZW 1014,0 20 0,0
18.05.2018 20:00:00 21,3 13,7 15 8 WZW 1013,8 20 -
18.05.2018 19:00:00 22,7 14,5 16 9 ZW 1013,8 20 0,0
18.05.2018 18:00:00 23,8 13,9 21 11 ZW 1013,5 20 0,0
18.05.2018 17:00:00 24,6 13,5 18 10 ZZW 1013,5 20 -
18.05.2018 16:00:00 24,9 13,1 18 10 ZZW 1014,1 20 0,0
18.05.2018 15:00:00 24,5 13,7 16 9 ZW 1014,5 20 0,0
18.05.2018 14:00:00 - - - - - - - -
18.05.2018 13:00:00 - - - - - - - -
18.05.2018 12:00:00 21,5 14,4 4 2 O 1015,5 20 0,0
18.05.2018 11:00:00 20,5 13,9 5 3 ONO 1015,5 10 -
18.05.2018 10:00:00 17,0 15,2 5 3 NNO 1015,4 17 0,0
18.05.2018 09:00:00 16,4 14,8 5 3 NO 1015,2 15 0,0
18.05.2018 08:00:00 14,5 13,5 8 4 NO 1014,8 7 -
18.05.2018 07:00:00 14,5 13,5 4 2 NO 1014,4 11 0,0
18.05.2018 06:00:00 14,5 13,4 5 3 NO 1014,3 14 0,0
18.05.2018 05:00:00 15,3 13,7 5 3 NNO 1014,4 16 -
18.05.2018 04:00:00 16,8 14,3 5 3 WZW 1014,8 19 0,0
18.05.2018 03:00:00 17,3 14,6 8 4 ZW 1015,0 20 0,0
18.05.2018 02:00:00 17,3 14,8 9 5 ZW 1015,2 20 -
18.05.2018 01:00:00 17,3 14,8 8 4 W 1015,6 20 0,0
18.05.2018 00:00:00 17,8 15,1 11 6 W 1015,3 20 0,0
17.05.2018 23:00:00 18,5 15,4 11 6 W 1014,8 20 -
17.05.2018 22:00:00 19,3 15,2 13 7 ZW 1014,3 16 0,0
17.05.2018 21:00:00 19,8 14,4 15 8 ZW 1014,1 20 0,0
17.05.2018 20:00:00 20,7 14,6 24 13 Z 1012,7 20 -
17.05.2018 19:00:00 22,3 14,2 22 12 ZZW 1012,7 20 0,0
17.05.2018 18:00:00 23,1 13,0 24 13 ZZW 1012,6 20 0,0
17.05.2018 17:00:00 24,4 12,4 22 12 ZZW 1012,7 20 -
17.05.2018 16:00:00 25,4 10,8 22 12 ZW 1012,7 20 0,0
17.05.2018 15:00:00 27,3 10,9 5 3 Z 1012,6 16 0,0
17.05.2018 14:00:00 26,0 9,3 5 3 O 1013,1 20 -
17.05.2018 13:00:00 25,2 9,9 8 4 O 1013,1 20 0,0
17.05.2018 12:00:00 24,0 9,6 5 3 ZZO 1013,2 20 0,0
17.05.2018 11:00:00 22,2 10,7 4 2 ZO 1013,1 18 -
17.05.2018 10:00:00 20,2 11,9 5 3 ONO - 20 0,0
17.05.2018 09:00:00 17,5 12,4 5 3 NO - 19 0,0
17.05.2018 08:00:00 14,8 11,8 8 4 NNO 1012,9 14 -
17.05.2018 07:00:00 13,5 11,4 5 3 NO 1012,4 20 0,0
17.05.2018 06:00:00 13,5 11,5 8 4 NO 1012,3 20 0,0
17.05.2018 05:00:00 14,9 10,9 9 5 NO 1012,2 20 -
17.05.2018 04:00:00 17,1 11,6 8 4 ZZW 1012,3 20 0,0
17.05.2018 03:00:00 17,4 12,1 9 5 ZW 1012,5 20 0,0
17.05.2018 02:00:00 17,7 12,2 13 7 ZZW 1012,5 20 -
17.05.2018 01:00:00 18,3 11,8 13 7 ZZW 1012,5 20 0,0

tt = temperatuur
td = dauwpunt
ff = windsnelheid
dd = windrichting
ppp = luchtdruk
vv = zicht
rr = neerslag

Weerstations in de omgeving